GW1187 Weather Reports


Display with metric or nautical units.
time (UTC)temp
F
wind
direction
speed
MPH
gust
MPH
rain 1hr
in
rain 24hr
in
rain mn
in
humidity
%
barometer
mb
20260508220109 53 171 2.0 10.0 0.00 0.00 0.00 40 1009.3
20260508214549 54 158 0.0 7.0 0.00 0.00 0.00 39 1009.0
20260508213046 55 129 2.0 9.0 0.00 0.00 0.00 36 1009.0
20260508211547 57 141 2.0 10.0 0.00 0.00 0.00 35 1008.6
20260508210045 57 30 3.0 10.0 0.00 0.00 0.00 33 1008.6
20260508204555 57 153 4.0 9.0 0.00 0.00 0.00 35 1008.5
20260508203048 55 330 3.0 7.0 0.00 0.00 0.00 38 1008.5
20260508201548 56 65 3.0 10.0 0.00 0.00 0.00 37 1008.5
20260508200046 56 18 2.0 12.0 0.00 0.00 0.00 36 1008.4
20260508194542 55 147 4.0 9.0 0.00 0.00 0.00 39 1008.4
20260508193047 54 92 1.0 6.0 0.00 0.00 0.00 39 1008.3
20260508191551 54 120 3.0 10.0 0.00 0.00 0.00 37 1008.5
20260508190103 53 35 2.0 8.0 0.00 0.00 0.00 39 1008.8
20260508184551 54 291 3.0 10.0 0.00 0.00 0.00 38 1008.9
20260508183047 53 143 0.0 8.0 0.00 0.00 0.00 40 1008.8
20260508181604 53 39 2.0 7.0 0.00 0.00 0.00 40 1009.0
20260508180048 53 61 3.0 15.0 0.00 0.00 0.00 39 1009.1
20260508174601 53 103 2.0 10.0 0.00 0.00 0.00 37 1008.8
20260508173046 53 135 1.0 9.0 0.00 0.00 0.00 35 1008.8
20260508171545 53 184 4.0 11.0 0.00 0.00 0.00 36 1008.9
20260508170042 53 123 3.0 11.0 0.00 0.00 0.00 35 1008.8
20260508164541 53 163 1.0 14.0 0.00 0.00 0.00 36 1008.8
20260508163048 52 126 0.0 6.0 0.00 0.00 0.00 38 1008.9
20260508161546 53 146 2.0 8.0 0.00 0.00 0.00 37 1008.9
20260508160047 53 52 1.0 6.0 0.00 0.00 0.00 41 1008.7
20260508154546 53 29 1.0 6.0 0.00 0.00 0.00 39 1008.7
20260508153044 53 72 4.0 12.0 0.00 0.00 0.00 39 1008.7
20260508151540 52 142 2.0 5.0 0.00 0.00 0.00 43 1008.8
20260508150046 52 209 3.0 7.0 0.00 0.00 0.00 41 1009.0
20260508144548 51 151 3.0 13.0 0.00 0.00 0.00 44 1009.0
20260508143051 50 94 1.0 8.0 0.00 0.00 0.00 46 1009.0
20260508141554 49 139 1.0 8.0 0.00 0.00 0.00 47 1009.3
20260508140041 48 143 2.0 7.0 0.00 0.00 0.00 51 1009.5
20260508134558 46 120 2.0 7.0 0.00 0.00 0.00 52 1009.8
20260508133045 46 297 2.0 9.0 0.00 0.00 0.00 51 1009.8
20260508131546 47 139 3.0 7.0 0.00 0.00 0.00 52 1009.8
20260508130043 47 160 1.0 9.0 0.00 0.00 0.00 52 1009.8
20260508124542 46 193 0.0 8.0 0.00 0.00 0.00 51 1009.8
20260508123058 47 130 1.0 7.0 0.00 0.00 0.00 52 1009.7
20260508121546 46 123 1.0 8.0 0.00 0.00 0.00 53 1009.7
20260508120047 46 155 2.0 7.0 0.00 0.00 0.00 52 1009.6
20260508114549 44 328 1.0 3.0 0.00 0.00 0.00 64 1009.6
20260508113045 40 0 0.0 0.0 0.00 0.00 0.00 74 1009.6
20260508111548 37 0 0.0 0.0 0.00 0.00 0.00 83 1009.4
20260508110048 34 0 0.0 0.0 0.00 0.00 0.00 88 1009.3
20260508104546 33 0 0.0 0.0 0.00 0.00 0.00 90 1009.3
20260508103042 31 0 0.0 0.0 0.00 0.00 0.00 91 1009.2
20260508101541 31 0 0.0 0.0 0.00 0.00 0.00 91 1009.1
20260508100048 30 0 0.0 0.0 0.00 0.00 0.00 91 1008.8
20260508094608 30 0 0.0 0.0 0.00 0.00 0.00 91 1008.8
20260508093046 30 0 0.0 0.0 0.00 0.00 0.00 91 1008.7
20260508091545 30 0 0.0 0.0 0.00 0.00 0.00 91 1008.6
20260508090049 30 0 0.0 0.0 0.00 0.00 0.00 91 1008.5
20260508084542 30 0 0.0 0.0 0.00 0.00 0.00 91 1008.5
20260508083048 30 0 0.0 0.0 0.00 0.00 0.00 91 1008.5
20260508081609 30 0 0.0 0.0 0.00 0.00 0.00 91 1008.5
20260508080041 30 0 0.0 0.0 0.00 0.00 0.00 91 1008.4
20260508074541 30 0 0.0 0.0 0.00 0.01 0.00 90 1008.2
20260508073047 31 0 0.0 0.0 0.00 0.01 0.00 90 1007.9
20260508071549 31 0 0.0 0.0 0.00 0.01 0.00 89 1007.7
20260508070045 32 0 0.0 0.0 0.00 0.01 0.00 89 1007.8
20260508064542 32 0 0.0 0.0 0.00 0.01 0.00 89 1007.8
20260508063055 32 0 0.0 0.0 0.00 0.01 0.00 89 1007.9
20260508061552 33 0 0.0 0.0 0.00 0.01 0.00 89 1007.9
20260508060053 33 0 0.0 0.0 0.00 0.01 0.00 88 1007.9
20260508054543 33 0 0.0 0.0 0.00 0.01 0.00 87 1008.1
20260508053041 34 0 0.0 0.0 0.00 0.01 0.00 87 1008.1
20260508051542 35 0 0.0 0.0 0.00 0.01 0.00 86 1008.3
20260508050048 35 0 0.0 0.0 0.00 0.01 0.00 85 1008.5
20260508044547 36 0 0.0 0.0 0.00 0.01 0.00 84 1008.5
20260508043045 36 0 0.0 0.0 0.00 0.01 0.00 83 1008.5
20260508041541 37 0 0.0 0.0 0.00 0.01 0.00 81 1008.6
20260508040050 38 0 0.0 0.0 0.00 0.01 0.00 80 1008.8
20260508034548 38 0 0.0 0.0 0.00 0.01 0.01 79 1008.7
20260508033049 39 0 0.0 0.0 0.00 0.01 0.01 76 1008.6
20260508031546 40 0 0.0 0.0 0.00 0.01 0.01 74 1008.5
20260508030042 41 0 0.0 0.0 0.00 0.01 0.01 73 1008.4
20260508024548 42 0 0.0 0.0 0.00 0.02 0.01 71 1008.4
20260508023041 42 0 0.0 0.0 0.00 0.02 0.01 71 1008.4
20260508021553 42 0 0.0 0.0 0.00 0.02 0.01 71 1008.5
20260508020047 42 0 0.0 0.0 0.00 0.02 0.01 70 1008.3
20260508014550 43 0 0.0 0.0 0.00 0.03 0.01 68 1008.0
20260508013047 45 0 0.0 0.0 0.00 0.03 0.01 64 1007.8
20260508011542 45 0 0.0 0.0 0.00 0.03 0.01 62 1007.6
20260508010040 46 0 0.0 0.0 0.00 0.03 0.01 57 1007.4
20260508004548 47 0 0.0 0.0 0.00 0.03 0.01 53 1007.2
20260508003047 48 0 0.0 0.0 0.00 0.03 0.01 51 1007.2
20260508001546 50 0 0.0 0.0 0.00 0.03 0.01 48 1007.0
20260508000049 50 0 0.0 0.0 0.00 0.03 0.01 46 1006.9
20260507234541 51 0 0.0 1.0 0.00 0.03 0.01 44 1006.7
20260507233045 52 192 0.0 5.0 0.00 0.03 0.01 41 1006.5
20260507231553 53 136 1.0 6.0 0.00 0.03 0.01 40 1006.5
20260507230050 54 91 0.0 10.0 0.00 0.03 0.01 39 1006.5
20260507224550 54 73 3.0 12.0 0.00 0.03 0.01 38 1006.3
20260507223043 55 103 1.0 9.0 0.00 0.03 0.01 38 1006.2
20260507221541 56 178 1.0 8.0 0.00 0.03 0.01 35 1006.1